NW Arkansas Airport, AR

2:51 AM CDT on May 21, 2018 (GMT -0500)
Northwest Arkansas Regional

Weather History for KXNA - October, 2012

Change the Weather History Date:

Wednesday, October 24, 2012

  Actual Average (KVBT) Record (KVBT)
Temperature  
Mean Temperature 71 °F -  
Max Temperature 80 °F 66 °F 84 °F (1950)
Min Temperature 63 °F 44 °F 25 °F (1981)
Cooling Degree Days 6    
Growing Degree Days 21 (Base 50)    
Moisture  
Dew Point 62 °F    
Average Humidity 77    
Maximum Humidity 97    
Minimum Humidity 60    
Precipitation  
Precipitation 0.00 in - - ()
Sea Level Pressure  
Sea Level Pressure 29.89 in    
Wind  
Wind Speed 12 mph (South)    
Max Wind Speed 22 mph    
Max Gust Speed 28 mph    
Visibility 10 miles    
Events      
Averages and records for this station are not official NWS values.
T = Trace of Precipitation, MM = Missing Value Source: NWS Daily Summary

Daily Weather History Graph

Daily Weather History Graph

Search for Another Location

Airport or City:

Astronomy

Oct. 24, 2012 Rise Set
Actual Time 7:32 AM CDT 6:29 PM CDT
Civil Twilight 7:06 AM CDT 6:55 PM CDT
Nautical Twilight 6:36 AM CDT 7:25 PM CDT
Astronomical Twilight 6:06 AM CDT 7:55 PM CDT
Moon 3:38 PM CDT (10/24) 2:37 AM CDT (10/24)
Length of Visible Light 11h 48m
Length of Day
10h 56m
Waxing Gibbous, 76% of the Moon is Illuminated
Oct 24
Waxing Gibbous
Oct 29
Full
Nov 6
Last Quarter
Nov 13
New
Nov 20
First Quarter

Hourly Weather History & Observations

Time (CDT) Temp. Dew Point Humidity Pressure Visibility Wind Dir Wind Speed Gust Speed Precip Events Conditions
12:53 AM 68.0 °F 62.1 °F 81% 29.91 in 10.0 mi South 6.9 mph - N/A   Scattered Clouds
1:53 AM 66.0 °F 62.1 °F 87% 29.91 in 10.0 mi South 8.1 mph - N/A   Scattered Clouds
2:53 AM 64.9 °F 62.1 °F 90% 29.91 in 10.0 mi South 8.1 mph - N/A   Clear
3:53 AM 64.0 °F 62.1 °F 93% 29.91 in 10.0 mi South 8.1 mph - N/A   Clear
4:53 AM 63.0 °F 62.1 °F 97% 29.93 in 10.0 mi South 8.1 mph - N/A   Clear
5:53 AM 63.0 °F 62.1 °F 97% 29.93 in 10.0 mi South 9.2 mph - N/A   Partly Cloudy
6:53 AM 64.0 °F 62.1 °F 93% 29.94 in 10.0 mi South 10.4 mph - N/A   Clear
7:53 AM 64.0 °F 62.1 °F 93% 29.94 in 10.0 mi South 10.4 mph - N/A   Clear
8:53 AM 66.9 °F 63.0 °F 87% 29.95 in 10.0 mi South 11.5 mph - N/A   Clear
9:53 AM 70.0 °F 63.0 °F 78% 29.95 in 10.0 mi South 15.0 mph - N/A   Clear
10:53 AM 73.9 °F 64.0 °F 71% 29.94 in 10.0 mi South 12.7 mph 21.9 mph N/A   Clear
11:53 AM 75.9 °F 64.0 °F 67% 29.93 in 10.0 mi South 21.9 mph 26.5 mph N/A   Clear
12:53 PM 77.0 °F 64.0 °F 64% 29.90 in 10.0 mi South 17.3 mph 24.2 mph N/A   Partly Cloudy
1:53 PM 79.0 °F 64.0 °F 60% 29.88 in 10.0 mi South 18.4 mph - N/A   Mostly Cloudy
2:53 PM 78.1 °F 63.0 °F 60% 29.86 in 10.0 mi SSW 18.4 mph 25.3 mph N/A   Partly Cloudy
4:53 PM 77.0 °F 62.1 °F 60% 29.84 in 10.0 mi South 21.9 mph 27.6 mph N/A   Clear
5:53 PM 73.9 °F 62.1 °F 66% 29.84 in 10.0 mi South 17.3 mph 25.3 mph N/A   Clear
6:53 PM 73.0 °F 61.0 °F 66% 29.84 in 10.0 mi South 12.7 mph - N/A   Clear
7:53 PM 71.1 °F 62.1 °F 73% 29.84 in 10.0 mi South 12.7 mph - N/A   Clear
8:53 PM 71.1 °F 61.0 °F 70% 29.83 in 10.0 mi South 16.1 mph - N/A   Clear
9:53 PM 71.1 °F 61.0 °F 70% 29.83 in 10.0 mi South 19.6 mph - N/A   Clear
10:53 PM 70.0 °F 61.0 °F 73% 29.81 in 10.0 mi South 15.0 mph 21.9 mph N/A   Clear
11:53 PM 69.1 °F 62.1 °F 78% 29.79 in 10.0 mi South 15.0 mph - N/A   Clear